Sunlight Mountain, CO

6:58 AM MDT on August 23, 2017 (GMT -0600)
Sunlight Mountain

Weather History for K5SM - November, 2013

Change the Weather History Date:

Saturday, November 9, 2013

  Actual Average (KRIL) Record (KRIL)
Temperature  
Mean Temperature 36 °F -  
Max Temperature 42 °F 52 °F 74 °F (1934)
Min Temperature 30 °F 23 °F 11 °F (1930)
Degree Days  
Heating Degree Days 29    
Moisture  
Dew Point 20 °F    
Average Humidity 56    
Maximum Humidity 69    
Minimum Humidity 42    
Precipitation  
Precipitation 0.00 in - - ()
Sea Level Pressure  
Sea Level Pressure 30.37 in    
Wind  
Wind Speed 0 mph (SW)    
Max Wind Speed 4 mph    
Max Gust Speed -    
Visibility 10 miles    
Events      
Averages and records for this station are not official NWS values.
T = Trace of Precipitation, MM = Missing Value Source: NWS Daily Summary

Daily Weather History Graph

Daily Weather History Graph

Search for Another Location

Airport or City:

Trip Planner

Search our weather history database for the weather conditions in past years. The results will help you decide how hot, cold, wet, or windy it might be!

Date:

Astronomy

Nov. 09, 2013 Rise Set
Actual Time 6:46 AM MST 4:59 PM MST
Civil Twilight 6:18 AM MST 5:27 PM MST
Nautical Twilight 5:46 AM MST 5:59 PM MST
Astronomical Twilight 5:14 AM MST 6:31 PM MST
Moon 12:25 PM MST (11/9) 11:32 PM MST (11/9)
Length of Visible Light 11h 09m
Length of Day
10h 12m
Waxing Crescent, 45% of the Moon is Illuminated
Nov 9
Waxing Crescent
Nov 9
First Quarter
Nov 17
Full
Nov 25
Last Quarter
Dec 2
New

Hourly Weather History & Observations

Time (MST) Temp. Windchill Dew Point Humidity Pressure Visibility Wind Dir Wind Speed Gust Speed Precip Events Conditions
12:01 AM 30.2 °F - 19.4 °F 64% 30.30 in 10.0 mi Calm Calm - N/A   Clear
12:21 AM 30.2 °F - 21.2 °F 69% 30.30 in 10.0 mi Calm Calm - N/A   Clear
12:41 AM 30.2 °F - 19.4 °F 64% 30.30 in 10.0 mi Calm Calm - N/A   Clear
1:01 AM 30.2 °F - 19.4 °F 64% 30.30 in 10.0 mi Calm Calm - N/A   Clear
1:21 AM 30.2 °F - 19.4 °F 64% 30.31 in 10.0 mi Calm Calm - N/A   Clear
1:40 AM 30.2 °F - 19.4 °F 64% 30.31 in 10.0 mi Calm Calm - N/A   Clear
2:01 AM 30.2 °F - 19.4 °F 64% 30.31 in 10.0 mi Calm Calm - N/A   Clear
2:21 AM 30.2 °F - 19.4 °F 64% 30.30 in 10.0 mi Calm Calm - N/A   Clear
2:41 AM 30.2 °F - 19.4 °F 64% 30.30 in 10.0 mi Calm Calm - N/A   Clear
3:01 AM 30.2 °F - 19.4 °F 64% 30.31 in 10.0 mi Calm Calm - N/A   Clear
3:21 AM 30.2 °F 26.7 °F 19.4 °F 64% 30.31 in 10.0 mi SW 3.5 mph - N/A   Clear
3:41 AM 32.0 °F - 19.4 °F 60% 30.31 in 10.0 mi Calm Calm - N/A   Clear
4:01 AM 30.2 °F - 17.6 °F 60% 30.31 in 10.0 mi Calm Calm - N/A   Clear
4:21 AM 30.2 °F - 19.4 °F 64% 30.31 in 10.0 mi Calm Calm - N/A   Clear
4:40 AM 32.0 °F - 19.4 °F 60% 30.32 in 10.0 mi Calm Calm - N/A   Clear
5:00 AM 32.0 °F - 19.4 °F 60% 30.32 in 10.0 mi Calm Calm - N/A   Clear
5:21 AM 32.0 °F 28.7 °F 19.4 °F 60% 30.33 in 10.0 mi SW 3.5 mph - N/A   Clear
5:41 AM 32.0 °F - 19.4 °F 60% 30.33 in 10.0 mi Calm Calm - N/A   Clear
6:01 AM 32.0 °F - 19.4 °F 60% 30.33 in 10.0 mi Calm Calm - N/A   Clear
6:21 AM 30.2 °F - 19.4 °F 64% 30.33 in 10.0 mi Calm Calm - N/A   Clear
6:41 AM 32.0 °F - 19.4 °F 60% 30.34 in 10.0 mi Calm Calm - N/A   Clear
7:01 AM 32.0 °F - 19.4 °F 60% 30.34 in 10.0 mi Calm Calm - N/A   Clear
7:21 AM 32.0 °F - 19.4 °F 60% 30.35 in 10.0 mi Calm Calm - N/A   Clear
7:41 AM 32.0 °F - 19.4 °F 60% 30.36 in 10.0 mi Calm Calm - N/A   Clear
8:01 AM 32.0 °F - 19.4 °F 60% 30.36 in 10.0 mi Calm Calm - N/A   Clear
8:21 AM 32.0 °F - 19.4 °F 60% 30.37 in 10.0 mi Calm Calm - N/A   Clear
8:41 AM 33.8 °F - 19.4 °F 56% 30.37 in 10.0 mi Calm Calm - N/A   Clear
9:01 AM 33.8 °F - 19.4 °F 56% 30.38 in 10.0 mi Calm Calm - N/A   Clear
9:21 AM 35.6 °F - 19.4 °F 52% 30.38 in 10.0 mi Calm Calm - N/A   Clear
9:41 AM 37.4 °F - 19.4 °F 48% 30.38 in 10.0 mi Calm Calm - N/A   Clear
10:01 AM 37.4 °F - 19.4 °F 48% 30.39 in 10.0 mi Calm Calm - N/A   Clear
10:21 AM 37.4 °F - 19.4 °F 48% 30.40 in 10.0 mi Calm Calm - N/A   Clear
10:41 AM 39.2 °F - 19.4 °F 45% 30.39 in 10.0 mi Calm Calm - N/A   Clear
11:01 AM 41.0 °F - 19.4 °F 42% 30.39 in 10.0 mi Calm Calm - N/A   Clear
11:21 AM 41.0 °F - 19.4 °F 42% 30.39 in 10.0 mi Calm Calm - N/A   Clear
11:40 AM 41.0 °F - 19.4 °F 42% 30.39 in 10.0 mi Calm Calm - N/A   Clear
12:01 PM 41.0 °F - 19.4 °F 42% 30.39 in 10.0 mi Calm Calm - N/A   Clear
12:21 PM 41.0 °F - 21.2 °F 45% 30.39 in 10.0 mi Calm Calm - N/A   Clear
12:41 PM 42.8 °F - 21.2 °F 42% 30.38 in 10.0 mi Calm Calm - N/A   Clear
1:01 PM 41.0 °F - 21.2 °F 45% 30.38 in 10.0 mi Calm Calm - N/A   Clear
1:21 PM 41.0 °F - 21.2 °F 45% 30.37 in 10.0 mi Calm Calm - N/A   Clear
1:41 PM 42.8 °F - 21.2 °F 42% 30.37 in 10.0 mi Calm Calm - N/A   Clear
2:01 PM 42.8 °F - 21.2 °F 42% 30.37 in 10.0 mi Calm Calm - N/A   Clear
2:21 PM 42.8 °F - 21.2 °F 42% 30.38 in 10.0 mi Calm Calm - N/A   Clear
2:41 PM 42.8 °F - 23.0 °F 46% 30.38 in 10.0 mi Calm Calm - N/A   Clear
3:01 PM 42.8 °F - 21.2 °F 42% 30.38 in 10.0 mi Calm Calm - N/A   Clear
3:21 PM 42.8 °F - 21.2 °F 42% 30.38 in 10.0 mi Calm Calm - N/A   Clear
3:41 PM 39.2 °F - 23.0 °F 52% 30.39 in 10.0 mi Calm Calm - N/A   Clear
4:01 PM 39.2 °F - 21.2 °F 49% 30.39 in 10.0 mi Calm Calm - N/A   Clear
4:21 PM 37.4 °F - 21.2 °F 52% 30.39 in 10.0 mi Calm Calm - N/A   Clear
4:41 PM 37.4 °F - 23.0 °F 56% 30.40 in 10.0 mi Calm Calm - N/A   Clear
5:00 PM 33.8 °F - 23.0 °F 65% 30.40 in 10.0 mi Calm Calm - N/A   Clear
5:21 PM 33.8 °F - 21.2 °F 60% 30.40 in 10.0 mi Calm Calm - N/A   Clear
5:41 PM 32.0 °F - 21.2 °F 64% 30.41 in 10.0 mi Calm Calm - N/A   Clear
6:01 PM 32.0 °F - 21.2 °F 64% 30.41 in 10.0 mi Calm Calm - N/A   Clear
6:21 PM 32.0 °F - 21.2 °F 64% 30.41 in 10.0 mi Calm Calm - N/A   Clear
6:41 PM 33.8 °F - 19.4 °F 56% 30.42 in 10.0 mi Calm Calm - N/A   Clear
7:01 PM 33.8 °F - 19.4 °F 56% 30.42 in 10.0 mi Calm Calm - N/A   Clear
7:21 PM 33.8 °F - 19.4 °F 56% 30.42 in 10.0 mi Calm Calm - N/A   Clear
7:41 PM 32.0 °F - 21.2 °F 64% 30.42 in 10.0 mi Calm Calm - N/A   Clear
8:01 PM 32.0 °F - 21.2 °F 64% 30.42 in 10.0 mi Calm Calm - N/A   Clear
8:20 PM 32.0 °F - 21.2 °F 64% 30.43 in 10.0 mi Calm Calm - N/A   Clear
8:41 PM 32.0 °F - 21.2 °F 64% 30.43 in 10.0 mi Calm Calm - N/A   Clear
9:00 PM 32.0 °F - 21.2 °F 64% 30.43 in 10.0 mi Calm Calm - N/A   Clear
9:20 PM 32.0 °F - 21.2 °F 64% 30.43 in 10.0 mi Calm Calm - N/A   Clear
9:41 PM 32.0 °F - 21.2 °F 64% 30.44 in 10.0 mi Calm Calm - N/A   Clear
10:01 PM 32.0 °F - 19.4 °F 60% 30.44 in 10.0 mi Calm Calm - N/A   Clear
10:21 PM 32.0 °F - 19.4 °F 60% 30.44 in 10.0 mi Calm Calm - N/A   Clear
10:41 PM 32.0 °F - 19.4 °F 60% 30.44 in 10.0 mi Calm Calm - N/A   Clear
11:01 PM 32.0 °F - 17.6 °F 55% 30.44 in 10.0 mi Calm Calm - N/A   Clear
11:21 PM 32.0 °F - 19.4 °F 60% 30.44 in 10.0 mi Calm Calm - N/A   Clear
11:41 PM 33.8 °F - 19.4 °F 56% 30.44 in 10.0 mi Calm Calm - N/A   Clear